{"data":{"norad_id":68833,"epoch":"2026-09-20T04:56:44.783232Z","epoch_age_seconds":81480,"freshness":"FRESH","line1":"1 68833U 26091C   26263.20607388  .00011279  00000+0  54346-3 0  9993","line2":"2 68833  55.0049 326.5150 0004165 324.2432  35.8308 15.19222174 22646","mean_motion":15.19222174,"eccentricity":0.0004165,"inclination_deg":55.0049,"raan_deg":326.515,"arg_perigee_deg":324.2432,"mean_anomaly_deg":35.8308,"bstar":0.00054346,"rev_number":2264,"period_min":94.785346386078,"perigee_km":505.3219414876,"apogee_km":511.05825195917,"semimajor_km":6886.3270967234,"source":"CELESTRAK","updated_at":"2026-09-20T09:00:24.496261Z"}}